Regional Weather Roundup
Issued by NWS

Home | Current Version | Previous Version | Graphics & Text | Print | Product List | Glossary On
Versions: 1 2 3 4 5 6 7 8 9 10 11 12 13 14 15 16 17 18 19 20 21 22 23 24 25 26 27 28 29 30 31 32 33 34 35 36 37 38 39 40 41 42 43 44 45 46 47 48 49 50
000
ASUS43 KFSD 291410
RWRSD

WEATHER ROUNDUP FOR SOUTH DAKOTA
NATIONAL WEATHER SERVICE SIOUX FALLS SD
800 AM CST THU JAN 29 2015

NOTE: "FAIR" INDICATES FEW OR NO CLOUDS BELOW 12,000 FEET WITH NO
SIGNIFICANT WEATHER AND/OR OBSTRUCTIONS TO VISIBILITY.


SDZ001>005-009-010-012>017-291500-
NORTHWEST AND NORTH CENTRAL SOUTH DAKOTA

CITY           SKY/WX    TMP DP  RH WIND       PRES   REMARKS
BUFFALO          N/A     21  19  92 NW14      30.35R WCI   8
FAITH            N/A     24  20  84 W8        30.41R WCI  15
MOBRIDGE       PTCLDY    29  20  69 NW22G30   30.38R WCI  15
$$

SDZ012>016-024>037-041>051-057-063-072>074-291500-
SOUTHWEST AND SOUTH CENTRAL SOUTH DAKOTA

CITY           SKY/WX    TMP DP  RH WIND       PRES   REMARKS
RAPID CTY ARPT CLEAR     22  19  89 W8        30.44R WCI  12
PIERRE         CLOUDY    35  26  69 N12       30.40R WCI  27
CUSTER         CLEAR     27 -14  16 N6        30.36R WCI  20
ELLSWORTH AFB  CLEAR     21  18  88 W7        30.43R WCI  12
PHILIP         CLOUDY    31  21  66 NW9       30.46R WCI  23
PINE RIDGE     MOCLDY    21  18  88 CALM      30.46R
WINNER         CLOUDY    36  26  67 NW16      30.40R
$$

SDZ004>011-016>023-039-040-291500-
NORTHEAST SOUTH DAKOTA

CITY           SKY/WX    TMP DP  RH WIND       PRES   REMARKS
ABERDEEN       CLOUDY    31  24  75 NW14      30.37R WCI  21
WATERTOWN      CLOUDY    27  22  81 N18G29    30.29R WCI  14
SISSETON         N/A     27  22  81 N24G31    30.31R WCI  12
$$

SDZ017-020-022-023-036>040-048>070-291500-
SOUTHEAST SOUTH DAKOTA

CITY           SKY/WX    TMP DP  RH WIND       PRES   REMARKS
SIOUX FALLS    CLOUDY    30  24  78 NW21G29   30.29R WCI  17
HURON          CLOUDY    32  26  78 N14       30.36R WCI  22
CHAMBERLAIN    CLOUDY    34  27  75 NW14      30.39R WCI  24
MITCHELL         N/A     33  27  78 NW16      30.37R WCI  23
YANKTON        CLOUDY    34  27  75 NW24G31   30.35R WCI  21
$$

ABBREVIATIONS USED IN REMARKS
   TC - TEMPERATURE IN CELSIUS
  WCI - WIND CHILL INDEX
   HX - HEAT INDEX
  VSB - VISIBILITY



USA.gov is the U.S. government's official web portal to all federal, state and local government web resources and services.